Home   Weather   Juiz de Fora   Past weeks

Flag for Brazil Past Weather in Juiz de Fora, Minas Gerais, Brazil — Yesterday and Last 2 Weeks

Now
77 °F

Partly cloudy.


Feels Like: 78 °F
Forecast: 69 / 83 °F
Wind: 6 mph from West

Location: Galeao

Current Time: Dec 10, 2016 at 3:21:56 am

Latest Report: Dec 10, 2016 at 3:00 am


Visibility: N/A

Pressure: 29.80 "Hg (27.51 "Hg at 697m altitude)

Humidity: 83%

Dew Point: 72 °F

Location of Juiz de ForaLocation

Past Weather in Juiz de Fora — Graph

°F

Juiz de Fora Temperature Yesterday

Maximum temperature yesterday: 86 °F (at 1:00 pm)
Minimum temperature yesterday: 77 °F (at 12:00 am)
Average temperature yesterday: 80 °F

High & Low Weather Summary for the Past Weeks

 TemperatureHumidityPressure
High93 °F (Nov 28, 2:00 pm)94% (Dec 3, 11:00 pm)30.15 "Hg (Dec 3, 11:00 pm)
Low66 °F (Dec 1, 6:00 am)43% (Dec 6, 1:00 pm)29.59 "Hg (Dec 4, 3:00 pm)
Average77 °F72%29.89 "Hg
* Reported Nov 25 2:00 am — Dec 10 2:00 am, Juiz de Fora, Weather by CustomWeather, © 2016

Note: Actual official high and low records may vary slightly from our data, if they occured in-between our weather recording intervals... More about our weather records

Advertising

Juiz de Fora Weather History for the Previous 24 Hours

Scroll right to see more
 ConditionsComfort  
Time TempWeatherWind HumidityBarometerVisibility
2:00 am
Sat, Dec 10
75 °FPassing clouds.8 mph94%29.80 "HgN/A
1:00 am77 °FPassing clouds.6 mph89%29.83 "HgN/A
12:00 am77 °FPartly cloudy.7 mph83%29.86 "HgN/A
11:00 pm
Fri, Dec 9
79 °FPartly cloudy.7 mph79%29.86 "HgN/A
10:00 pm79 °FPassing clouds.12 mph79%29.83 "HgN/A
9:00 pm79 °FPassing clouds.10 mph79%29.83 "HgN/A
8:00 pm81 °FPassing clouds.6 mph62%29.80 "HgN/A
7:00 pm81 °FPartly sunny.9 mph70%29.77 "HgN/A
6:00 pm82 °FPartly sunny.14 mph62%29.77 "HgN/A
5:00 pm82 °FPartly sunny.14 mph58%29.74 "HgN/A
4:00 pm84 °FBroken clouds.13 mph66%29.74 "HgN/A
3:00 pm84 °FPartly sunny.15 mph66%29.74 "HgN/A
2:00 pm82 °FPartly sunny.15 mph74%29.77 "HgN/A
1:00 pm86 °FPartly sunny.13 mph62%29.77 "HgN/A
12:00 pm84 °FPartly sunny.8 mph66%29.77 "HgN/A
11:00 am84 °FPartly sunny.3 mph70%29.77 "HgN/A
10:00 am82 °FPartly sunny.6 mph70%29.77 "HgN/A
9:00 am79 °FPartly sunny.2 mph84%29.77 "HgN/A
8:00 am79 °FPartly sunny.3 mph84%29.77 "HgN/A
7:00 am77 °FPartly sunny.3 mph83%29.77 "HgN/A
6:00 am77 °FPartly sunny.1 mph83%29.74 "HgN/A
5:00 am77 °FPassing clouds.7 mph83%29.74 "HgN/A
4:00 am77 °FPassing clouds.13 mph83%29.74 "HgN/A
3:00 am79 °FPassing clouds.8 mph74%29.74 "HgN/A
Weather by CustomWeather, © 2016

See weather overviewHow to use our weather pages